USA 283

Last updated on Wed Oct 29 2025 00:02:49 GMT+0000 (Coordinated Universal Time)

1 43339U 18036A 25301.30225405 .00000000 00000+0 00000+0 0 9990 2 43339 0.0154 258.6324 0000017 26.0151 355.1549 1.00269099 22964
UTC large
Height (km)
Speed (km/s)
/
Latitude / Longitude
Inclination (degrees)
Orbital Period (minutes)
Azimuth
Elevation
Range (km)
Doppler Factor

Next 0 passes for location: London (51.5072 / 0.1276)

Sorry there are no passes over London.